Voltar ao catálogo

THORAD AGENA D DEB

AtivoPO
NORAD 4932·DEBRIS·🇺🇸 United States

Lançado Apr 8, 1970 de Vandenberg Space Force Base

Loading…

Próximas Passagens (próximas 24 horas)

TLE

AtualizadoSource: Space-Track

Época: Sep 14, 2026, 08:32 UTC

1 04932U 70025FY  26257.35581940  .00001469  00000-0  10451-2 0  9992
2 04932  99.8001 285.2611 0030259  93.8247 279.9686 13.99090573815641

Acompanhe THORAD AGENA D DEB em tempo real com AllMySat

Download on the App Store